Hourly Data Report for November 27, 2021

VANCOUVER INTL A
BRITISH COLUMBIA
Current Station Operator: NAVCAN

49°11'41.000" N
123°11'02.000" W
4.30 m
1108395
71892
YVR

Download Data

Hourly Data (November 2021)
Hourly Data Report for November 27, 2021
TIME
LST
Temp Definition
°C
Dew Point Definition
°C
Rel Hum Definition
%
Precip. Amount Definition
mm

Wind Dir Definition
10's deg

Wind Spd Definition
km/h
Visibility Definition
km
Stn Press Definition
kPa
Hmdx Definition


Wind Chill Definition


Weather Definition


00:00 7.0 5.1 88   6 14 24.1 102.26     LegendNANA
01:00 7.2 5.7 90   7 12 24.1 102.20     Cloudy
02:00 7.2 5.8 91   10 13 22.5 102.15     LegendNANA
03:00 7.4 5.5 88   7 14 22.5 102.12     LegendNANA
04:00 7.5 5.6 88   7 10 22.5 102.03     Cloudy
05:00 7.0 6.0 93   9 17 22.5 101.92     Rain
06:00 7.1 6.1 93   10 16 22.5 101.83     Rain
07:00 6.9 6.3 96   9 13 24.1 101.75     Rain
08:00 6.9 6.5 97   10 13 32.2 101.70     Rain
09:00 7.1 6.8 98   9 20 16.1 101.64     Rain
10:00 7.3 7.0 98   8 13 16.1 101.63     Rain
11:00 8.4 8.1 98   7 14 12.9 101.59     Rain
12:00 9.1 8.8 98   6 17 12.9 101.49     Moderate Rain
13:00 9.3 8.9 97   6 15 9.7 101.38     Rain, Fog
14:00 9.5 9.2 98   7 17 9.7 101.24     Rain, Fog
15:00 9.7 9.5 98   6 14 9.7 101.12     Moderate Rain, Fog
16:00 8.8 8.6 99   9 14 8.1 101.08     Moderate Rain, Fog
17:00 8.6 8.4 99   8 15 6.4 101.02     Rain, Fog
18:00 8.9 8.8 99   9 16 6.4 100.97     Rain, Fog
19:00 9.7 9.4 98   9 26 16.1 100.92     Rain Showers
20:00 9.8 9.6 98   9 22 24.1 100.95     Rain
21:00 10.8 10.6 99   10 17 24.1 100.98     Rain Showers
22:00 11.7 11.5 98   13 19 24.1 100.95     Rain
23:00 11.9 11.6 98   13 25 24.1 100.91     LegendNANA

Notes on Data Quality.

Legend

  • E = Estimated
  • M = Missing
  • NA = Not Available*
  • [empty] = Indicates an unobserved value
Date modified: